Brno, Czech Republic

6:52 PM CEST on August 27, 2016 (GMT +0200)
Turany

Weather History for LKTB - June, 2014

Change the Weather History Date:

Tuesday, June 17, 2014

  Actual Average Record
Temperature  
Mean Temperature 64 °F -  
Max Temperature 75 °F 74 °F - ()
Min Temperature 52 °F 54 °F - ()
Degree Days  
Heating Degree Days 2    
Growing Degree Days 14 (Base 50)    
Moisture  
Dew Point 43 °F    
Average Humidity 43    
Maximum Humidity 77    
Minimum Humidity 16    
Precipitation  
Precipitation 0.00 in 0.09 in - ()
Sea Level Pressure  
Sea Level Pressure 30.02 in    
Wind  
Wind Speed 5 mph ()    
Max Wind Speed 14 mph    
Max Gust Speed -    
T = Trace of Precipitation, MM = Missing Value Source: Averaged Metar Reports

Daily Weather History Graph

Daily Weather History Graph

Search for Another Location

Airport or City:

Trip Planner

Search our weather history database for the weather conditions in past years. The results will help you decide how hot, cold, wet, or windy it might be!

Date:

Astronomy

Jun. 17, 2014 Rise Set
Actual Time 4:47 AM CEST 9:00 PM CEST
Civil Twilight 4:04 AM CEST 9:43 PM CEST
Nautical Twilight 3:02 AM CEST 10:45 PM CEST
Astronomical Twilight 1:26 AM CEST 12:21 AM CEST
Moon 11:52 PM CEST (6/17) 10:04 AM CEST (6/17)
Length of Visible Light 17h 39m
Length of Day
16h 13m
Waning Gibbous, 76% of the Moon is Illuminated
Jun 17
Waning Gibbous
Jun 19
Last Quarter
Jun 27
New
Jul 5
First Quarter
Jul 12
Full

Hourly Weather History & Observations

Time (CEST) Temp. Dew Point Humidity Pressure Visibility Wind Dir Wind Speed Gust Speed Precip Events Conditions
12:00 AM 62 °F 45 °F 43% 30.01 in 31 mi SE 2.2 mph - -   Mostly Cloudy
12:00 AM 62.6 °F 46.4 °F 55% 30.01 in - Variable 2.3 mph - N/A   Clear
12:30 AM 60.8 °F 46.4 °F 59% 30.01 in - Variable 2.3 mph - N/A   Clear
1:00 AM 61 °F 44 °F 43% 30.01 in 28 mi North 4.5 mph - -   Mostly Cloudy
1:00 AM 60.8 °F 44.6 °F 55% 30.01 in - North 3.5 mph - N/A   Clear
1:30 AM 59.0 °F 44.6 °F 59% 30.01 in - NNW 4.6 mph - N/A   Clear
2:00 AM 58 °F 45 °F 51% 30.01 in 28 mi NW 2.2 mph - -   Mostly Cloudy
2:00 AM 59.0 °F 46.4 °F 63% 30.01 in - Variable 2.3 mph - N/A   Clear
2:30 AM 57.2 °F 46.4 °F 67% 30.01 in - North 2.3 mph - N/A   Clear
3:00 AM 57 °F 45 °F 55% 30.02 in 28 mi ENE 2.2 mph - -   Partly Cloudy
3:00 AM 57.2 °F 46.4 °F 67% 30.01 in - Variable 1.2 mph - N/A   Clear
3:30 AM 53.6 °F 46.4 °F 77% 30.01 in - Variable 1.2 mph - N/A   Clear
4:00 AM 56 °F 45 °F 56% 30.02 in 28 mi NW 4.5 mph - -   Partly Cloudy
4:00 AM 55.4 °F 44.6 °F 67% 30.01 in - NW 3.5 mph - N/A   Clear
4:30 AM 55.4 °F 44.6 °F 67% 30.01 in - NE 3.5 mph - N/A   Clear
5:00 AM 54 °F 44 °F 60% 30.03 in 31 mi North 4.5 mph - -   Scattered Clouds
5:00 AM 53.6 °F 44.6 °F 72% 30.01 in - NNW 3.5 mph - N/A   Clear
5:30 AM 55.4 °F 44.6 °F 67% 30.01 in - NW 4.6 mph - N/A   Clear
6:00 AM 56 °F 46 °F 59% 30.04 in 31 mi NNW 4.5 mph - -   Scattered Clouds
6:00 AM 55.4 °F 46.4 °F 72% 30.04 in - NNW 4.6 mph - N/A   Clear
6:30 AM 57.2 °F 46.4 °F 67% 30.04 in - Variable 2.3 mph - N/A   Clear
7:00 AM 58 °F 46 °F 54% 30.04 in 31 mi East 2.2 mph - -   Scattered Clouds
7:00 AM 57.2 °F 46.4 °F 67% 30.04 in - NW 2.3 mph - N/A   Clear
7:30 AM 59.0 °F 46.4 °F 63% 30.04 in - Variable 1.2 mph - N/A   Clear
8:00 AM 63 °F 47 °F 45% 30.04 in 31 mi East 2.2 mph - -   Scattered Clouds
8:00 AM 62.6 °F 46.4 °F 55% 30.04 in - Variable 1.2 mph - N/A   Clear
8:30 AM 66.2 °F 44.6 °F 46% 30.04 in - Variable 3.5 mph - N/A   Clear
9:00 AM 68 °F 41 °F 26% 30.03 in 31 mi ENE 13.4 mph - -   Scattered Clouds
9:00 AM 66.2 °F 41.0 °F 40% 30.04 in - ENE 11.5 mph - N/A   Clear
9:30 AM 68.0 °F 42.8 °F 40% 30.04 in - East 11.5 mph - N/A   Clear
10:00 AM 70 °F 40 °F 22% 30.02 in 31 mi ENE 8.9 mph - -   Scattered Clouds
10:00 AM 69.8 °F 42.8 °F 38% 30.04 in - ENE 11.5 mph - N/A   Clear
10:30 AM 71.6 °F 41.0 °F 33% 30.04 in - NE 10.4 mph - N/A   Clear
11:00 AM 72 °F 38 °F 18% 30.01 in 31 mi NE 8.9 mph - -   Partly Cloudy
11:00 AM 71.6 °F 41.0 °F 33% 30.04 in - East 10.4 mph - N/A   Clear
11:30 AM 71.6 °F 39.2 °F 31% 30.04 in - NE 10.4 mph - N/A   Clear
12:00 PM 73 °F 37 °F 16% 30.01 in 31 mi NE 11.2 mph - -   Partly Cloudy
12:00 PM 71.6 °F 37.4 °F 29% 30.04 in - NE 11.5 mph - N/A   Clear
12:30 PM 73.4 °F 37.4 °F 27% 30.04 in - North 12.7 mph - N/A   Clear
1:00 PM 73 °F 37 °F 17% 30.01 in 31 mi NNE 11.2 mph - -   Mostly Cloudy
1:00 PM 73.4 °F 39.2 °F 29% 30.04 in - NNE 13.8 mph - N/A   Clear
1:30 PM 73.4 °F 41.0 °F 31% 30.04 in - NE 10.4 mph - N/A   Clear
2:00 PM 74 °F 38 °F 17% 30.00 in 31 mi North 11.2 mph - -   Mostly Cloudy
2:00 PM 73.4 °F 39.2 °F 29% 30.01 in - NNE 10.4 mph - N/A   Clear
2:30 PM 71.6 °F 41.0 °F 33% 30.01 in - North 5.8 mph - N/A   Clear
3:00 PM 71 °F 36 °F 18% 30.00 in 31 mi NNE 8.9 mph - -   Mostly Cloudy
3:00 PM 71.6 °F 41.0 °F 33% 30.01 in - NNE 9.2 mph - N/A   Clear
3:30 PM 75.2 °F 39.2 °F 27% 30.01 in - ENE 9.2 mph - N/A   Clear
4:00 PM 71 °F 38 °F 20% 29.99 in 31 mi NNE 8.9 mph - -   Mostly Cloudy
4:00 PM 71.6 °F 41.0 °F 33% 30.01 in - NNE 8.1 mph - N/A   Clear
5:00 PM 72 °F 40 °F 20% 29.98 in 31 mi NE 4.5 mph - -   Partly Cloudy
5:00 PM 71.6 °F 41.0 °F 33% 30.01 in - NE 4.6 mph - N/A   Clear
5:30 PM 73.4 °F 39.2 °F 29% 30.01 in - North 6.9 mph - N/A   Clear
6:00 PM 71 °F 39 °F 20% 29.97 in 31 mi North 8.9 mph - -   Scattered Clouds
6:00 PM 71.6 °F 41.0 °F 33% 29.98 in - NNW 9.2 mph - N/A   Clear
6:30 PM 73.4 °F 39.2 °F 29% 29.98 in - North 11.5 mph - N/A   Clear
7:00 PM 72 °F 40 °F 21% 29.98 in 31 mi North 11.2 mph - -   Scattered Clouds
7:00 PM 71.6 °F 41.0 °F 33% 30.01 in - North 12.7 mph - N/A   Clear
7:30 PM 71.6 °F 42.8 °F 35% 30.01 in - North 9.2 mph - N/A   Clear
8:00 PM 69 °F 42 °F 26% 29.99 in 31 mi North 8.9 mph - -   Scattered Clouds
8:00 PM 69.8 °F 42.8 °F 38% 30.01 in - North 8.1 mph - N/A   Clear
8:30 PM 68.0 °F 42.8 °F 40% 30.01 in - North 8.1 mph - N/A   Clear
9:00 PM 67 °F 44 °F 31% 30.01 in 25 mi North 8.9 mph - -   Scattered Clouds
9:00 PM 68.0 °F 44.6 °F 43% 30.01 in - NNW 9.2 mph - N/A   Clear
9:30 PM 66.2 °F 44.6 °F 46% 30.04 in - North 6.9 mph - N/A   Clear
10:00 PM 63 °F 45 °F 41% 30.04 in 25 mi NNE 6.7 mph - -   Scattered Clouds
10:00 PM 64.4 °F 46.4 °F 52% 30.04 in - NNE 6.9 mph - N/A   Clear
10:30 PM 62.6 °F 46.4 °F 55% 30.04 in - NNE 5.8 mph - N/A   Clear
11:00 PM 62 °F 45 °F 42% 30.05 in 25 mi NNE 4.5 mph - -   Mostly Cloudy
11:00 PM 62.6 °F 46.4 °F 55% 30.04 in - NNE 4.6 mph - N/A   Clear
11:30 PM 60.8 °F 46.4 °F 59% 30.06 in - North 4.6 mph - N/A   Clear